Flag for Belgium Weather past 2 weeks in Leuven, Belgium

Now
57 °F

Scattered clouds.


Feels Like: 56 °F
Forecast: 48 / 60 °F
Wind: 7 mph from North

Location: Brussels National Airport

Current Time: Sep 21, 2014 at 8:56:28 PM

Latest Report: Sep 21, 2014 at 8:20 PM


Visibility: N/A

Pressure: 30.15 "Hg

Humidity: 77%

Dew point: 50 °F

Location of LeuvenLocation

Historic Weather in Leuven — Graph

°F

Leuven temperature yesterday

Maximum temperature yesterday: 73 °F (at 12:50 PM)
Minimum temperature yesterday: 61 °F (at 1:50 AM)
Average temperature yesterday: 65 °F

Past Weeks' High & Low Weather Summary

 TemperatureHumidityPressure
High79 °F (Sep 19, 4:20 PM)100% (Sep 7, 5:50 AM)30.27 "Hg (Sep 7, 5:50 AM)
Low48 °F (Sep 12, 4:50 AM)47% (Sep 17, 3:50 PM)29.80 "Hg (Sep 18, 4:20 AM)
Average61 °F80%30.04 "Hg
* Reported Sep 6 7:20 PM — Sep 21 7:20 PM, Leuven, Weather by CustomWeather, © 2014

Note: Actual official high and low records may vary slightly from our data, if they occured in-between our weather recording intervals... More about our weather records

Advertising

Leuven weather history for previous 24 hours

 ConditionsComfort  
Time TempWeatherWind HumidityBarometerVisibility
7:20 PM
Sep 21
59 °FPassing clouds.13 mph68%30.15 "HgN/A
6:50 PM61 °FPassing clouds.13 mph63%30.12 "HgN/A
6:20 PM61 °FPassing clouds.15 mph68%30.12 "HgN/A
5:50 PM63 °FPassing clouds.12 mph64%30.12 "HgN/A
5:20 PM63 °FPassing clouds.12 mph64%30.12 "HgN/A
4:50 PM63 °FPassing clouds.15 mph59%30.12 "HgN/A
4:20 PM64 °FPassing clouds.12 mph60%30.09 "HgN/A
3:50 PM64 °FPassing clouds.13 mph56%30.09 "HgN/A
3:20 PM64 °FPassing clouds.8 mph64%30.09 "HgN/A
2:50 PM61 °FPassing clouds.9 mph72%30.09 "HgN/A
2:20 PM61 °FPassing clouds.10 mph77%30.09 "HgN/A
1:50 PM61 °FPassing clouds.8 mph77%30.09 "HgN/A
1:20 PM57 °FSprinkles. Passing clouds.15 mph82%30.09 "HgN/A
12:50 PM61 °FPassing clouds.8 mph83%30.09 "HgN/A
12:20 PM61 °FPassing clouds.7 mph83%30.09 "HgN/A
11:50 AM59 °FPartly sunny.7 mph88%30.09 "HgN/A
11:20 AM59 °FBroken clouds.9 mph88%30.09 "HgN/A
10:50 AM59 °FDrizzle. Partly sunny.14 mph88%30.07 "Hg6 mi
10:20 AM59 °FDrizzle. Broken clouds.16 mph94%30.07 "Hg4 mi
9:50 AM61 °FDrizzle. Broken clouds.10 mph88%30.04 "Hg4 mi
9:20 AM59 °FDrizzle. Broken clouds.8 mph94%30.04 "Hg2 mi
8:50 AM59 °FDrizzle. Partly sunny.8 mph94%30.04 "Hg2 mi
8:20 AM61 °FPassing clouds.6 mph94%30.01 "Hg1 mi
7:50 AM61 °FFog.5 mph88%30.01 "Hg1 mi
7:20 AM61 °FFog.5 mph94%30.01 "Hg1 mi
6:50 AM61 °FLight rain. Fog.3 mph88%30.01 "Hg2 mi
6:20 AM61 °FRain. Fog.3 mph88%30.01 "Hg1 mi
5:50 AM61 °FRain. Fog.5 mph88%30.01 "Hg1 mi
4:50 AM61 °FLight rain. Fog.6 mph94%30.01 "Hg2 mi
4:20 AM63 °FDrizzle. Fog.5 mph88%30.01 "Hg2 mi
3:50 AM63 °FPassing clouds.5 mph88%30.01 "Hg4 mi
3:20 AM63 °FPartly cloudy.5 mph88%30.01 "Hg4 mi
2:50 AM63 °FPassing clouds.6 mph88%30.01 "Hg4 mi
2:20 AM63 °FPartly cloudy.6 mph88%30.01 "Hg4 mi
1:50 AM63 °FPartly cloudy.6 mph88%30.01 "Hg4 mi
1:20 AM63 °FFog.5 mph88%30.01 "Hg3 mi
12:50 AM63 °FFog.6 mph88%30.01 "Hg3 mi
12:20 AM63 °FFog.6 mph94%30.01 "Hg3 mi
11:50 PM
Sep 20
63 °FFog.5 mph94%30.01 "Hg3 mi
11:20 PM63 °FPassing clouds.5 mph88%30.01 "Hg4 mi
10:20 PM64 °FPassing clouds.3 mph83%30.01 "Hg4 mi
9:50 PM64 °FThundershowers. Passing clouds.7 mph88%30.01 "Hg4 mi
9:20 PM64 °FFog.7 mph88%29.98 "Hg3 mi
8:50 PM64 °FFog.5 mph88%29.98 "Hg3 mi
8:20 PM64 °FFog.3 mph88%29.98 "Hg3 mi
Weather by CustomWeather, © 2014

See weather overviewHow to use our weather pages